Regional Weather Roundup
Issued by NWS

Home | Current Version | Previous Version | Text Only | Print | Product List | Glossary On
Versions: 1 2 3 4 5 6 7 8 9 10 11 12 13 14 15 16 17 18 19 20 21 22 23 24 25 26 27 28 29 30 31 32 33 34 35 36 37 38 39 40 41 42 43 44 45 46 47 48 49 50
000
ASUS43 KBIS 242120
RWRND

NORTH DAKOTA REGIONAL WEATHER ROUNDUP
NATIONAL WEATHER SERVICE BISMARCK ND
400 PM CDT THU JUL 24 2014

NOTE: "FAIR" INDICATES FEW OR NO CLOUDS BELOW 12,000 FEET WITH NO
SIGNIFICANT WEATHER AND/OR OBSTRUCTIONS TO VISIBILITY.


NDZ001>003-009>011-017-242200-
NORTHWEST NORTH DAKOTA

CITY           SKY/WX    TMP DP  RH WIND       PRES   REMARKS
WILLISTON      MOSUNNY   83  63  50 S8        29.71R
MINOT          PTSUNNY   76  63  64 SW15G22   29.88R
MINOT AFB      CLOUDY    73  68  83 S14       29.81R
$$

NDZ018>021-031>035-040>046-242200-
SOUTHWEST NORTH DAKOTA

CITY           SKY/WX    TMP DP  RH WIND       PRES   REMARKS
BISMARCK       CLOUDY    79  64  60 SE17      29.79F
DICKINSON      CLOUDY    79  67  66 NE12      29.79F
GARRISON         N/A     72  65  78 W15       29.89R
HETTINGER ARPT SUNNY     86  66  51 SE14      29.76F
$$

NDZ004>008-012>016-024-026-027-054-242200-
NORTHEAST NORTH DAKOTA

CITY           SKY/WX    TMP DP  RH WIND       PRES   REMARKS
GRAND FORKS    MOSUNNY   76  58  53 S13G23    29.89R
GRND FRKS AFB  SUNNY     77  61  58 S15       29.90R
DEVILS LAKE    SUNNY     75  61  60 SE17      29.84F
$$

NDZ022-023-025-028>030-036>039-047>053-242200-
SOUTHEAST NORTH DAKOTA

CITY           SKY/WX    TMP DP  RH WIND       PRES   REMARKS
FARGO          PTSUNNY   75  62  64 S10G23    29.88F
JAMESTOWN      SUNNY     78  63  59 S22G30    29.83F
$$



USA.gov is the U.S. government's official web portal to all federal, state and local government web resources and services.